Location: Olmeneta
(45.2333°N, 10.0167°E)
Time: 15:08:59
(UTC+00:00)

GP-B - Pass Details

Date: 03 March 2021
Orbit: 631 x 635 km, 89.8° (Epoch: 11 April)

Event Time Altitude Azimuth Distance (km) Brightness Sun altitude
Rises 17:44:36 0° 146° (SE) 2,920 6.2 -6.9°
Reaches altitude 10° 17:47:05 10° 133° (SE) 2,017 5.3 -7.3°
Maximum altitude 17:50:43 25° 78° (ENE) 1,276 4.1 -8.0°
Drops below altitude 10° 17:54:23 10° 23° (NNE) 2,031 5.5 -8.6°
Sets 17:56:54 0° 10° (N) 2,944 6.4 -9.0°
